Welcome to the New NWS' Forecast!
Most changes are behind the scenes, but click here for differences you might notice.
Latest weather observations around

Ardmore, Ardmore Municipal Airport (KADM)

Using English Units (Switch to International System of Units)
Date/ Time (CDT) Wind (mph) Vis. (mi) Weather Sky Cond. Temp (°F) Rel. Humidity Wind Chill (°F) Heat Index (°F) Pressure Precip. (in)
Air Dwpt 6 hour Altimeter (inHg) Sea level (inHg) 1 hr 3 hr 6 hr
Max Min
Aug 15 03:15 SSE 7 10 Partly Cloudy SCT080 78 72     80%   80 29.89        
Aug 15 02:55 ESE 5 10 Mostly Cloudy BKN080 78 72     82%   79 29.91        
Aug 15 02:35 SSE 3 10 Partly Cloudy SCT080 78 72     80%   80 29.91        
Aug 15 02:15 SE 6 10 Clear CLR 79 72     79%   82 29.9        
Aug 15 01:55 SE 5 10 Clear CLR 78 72     82%   79 29.9        
Aug 15 01:35 ENE 5 10 Clear CLR 78 72     82%   79 29.91        
Aug 15 01:15 SE 3 10 Clear CLR 80 71     75%   83 29.89        
Aug 15 00:55 S 9 7 Clear CLR 80 72     77%   83 29.87        
Aug 15 00:35 SSE 11 10 Partly Cloudy SCT080 SCT110 79 72     80%   82 29.87        
Aug 15 00:15 SSE 3 10 Mostly Cloudy BKN080 BKN110 80 72     78%   83 29.92        
Aug 14 23:55 ESE 8 7 Light Rain SCT070 OVC080 80 72     78%   84 29.93        
Aug 14 23:35   7 Cloudy BKN070 OVC085 77 74     89%   79 29.93        
Aug 14 23:15 Calm 7 Cloudy BKN070 OVC085 78 74     89%   79 29.92        
Aug 14 22:55 Calm 7 Partly Cloudy SCT070 SCT085 76 74     91%   78 29.93        
Aug 14 21:55 ESE 5 7 Partly Cloudy SCT070 77 73     89%   79 29.91        
Aug 14 20:55 ESE 3 7 Clear CLR 81 73     79%   85 29.87        
Aug 14 19:55 SSE 5 7 Clear CLR 82 75     79%   89 29.88        
Aug 14 18:55 SSE 7 7 Clear CLR 84 73     70%   91 29.88        
Aug 14 17:55 SSE 10 7 Partly Cloudy SCT095 84 73     70%   91 29.9        
Aug 14 16:55 S 11 7 Clear CLR 84 73     70%   91 29.92        
Aug 14 15:55 S 16 10 Clear CLR 84 72     66%   90 29.94        
Aug 14 14:55 S 10 10 Clear CLR 84 70     62%   88 29.95        
Aug 14 13:55 S 14 10 Clear CLR 84 70     62%   88 29.95        
Aug 14 12:55 SSE 7 10 Thunderstorms SCT041 SCT075 BKN090 77 70     78%   78 29.97        
Aug 14 11:55 S 9 10 Thunderstorms OVC037 75 68     78%   76 29.98        
Aug 14 09:55 SSE 5 10 Cloudy OVC039 75 72     89%   77 29.95        
Aug 14 08:55 SSE 7 10 Mostly Cloudy BKN043 BKN070 75 72     89%   77 29.94        
Aug 14 07:55 S 7 7 Thunderstorms and Rain BKN017 BKN026 BKN050 73 72     94%   75 29.94        
Aug 14 06:55 SE 5 7 Light Rain BKN015 BKN070 BKN080 73 72     94%   75 29.93        
Aug 14 06:35 ESE 5 7 Cloudy SCT005 BKN075 OVC090 73 72     96%   75 29.92        
Aug 14 06:15 ESE 3 5 Fog/Mist BKN005 BKN075 OVC090 73 72     97%   75 29.92        
Aug 14 05:55 ESE 3 5 Fog/Mist BKN005 BKN065 OVC080 73 72     97%   74 29.92        
Notice The following observation data may not be complete
Aug 14 05:35   7 Mostly Cloudy SCT065 BKN075          %              
Aug 14 05:15 Calm 7 Mostly Cloudy SCT065 BKN090 73 72     96%   74 29.92        
Aug 14 04:55 ESE 5 7 Cloudy OVC065 73 72     96%   74 29.92        
Aug 14 04:35 ESE 6 7 Light Drizzle OVC065 73 72     96%   74 29.92        
Notice The following observation data may not be complete
Aug 14 04:15   7 Thunderstorms and Rain OVC065          %              
Aug 14 03:55 Calm 7 Rain BKN065 OVC085 73 72     95%   75 29.94        
Aug 14 03:35 SE 3 10 Cloudy OVC065 73 72     94%   75 29.93        
Notice The following observation data may not be complete
Aug 14 03:15   10 Cloudy OVC065          %              
Aug 14 02:55 Calm 10 Cloudy BKN075 OVC095 73 71     94%   74 29.93        
Aug 14 02:35 Calm 10 Mostly Cloudy BKN075 BKN095 73 71     94%   74 29.93        
Aug 14 02:15 Calm 10 Partly Cloudy SCT075 72 71     96%   73 29.93        
Aug 14 01:55 Calm 10 Partly Cloudy SCT065 SCT075 SCT090 73 71     93%   75 29.93        
Notice The following observation data may not be complete
Aug 14 01:35   10 Light Rain SCT065 BKN075 OVC120          %              
Aug 14 01:15 Calm 10 Cloudy SCT075 BKN100 OVC120 73 71     92%   75 29.94        
Aug 14 00:55 SE 3 10 Cloudy SCT065 OVC100 73 71     94%   74 29.94        
Aug 14 00:35 SE 3 10 Cloudy SCT065 OVC090 73 71     92%   75 29.94        
Aug 14 00:15 SSE 3 10 Cloudy SCT065 OVC100 73 71     93%   75 29.95        
Aug 13 23:55 ESE 5 10 Cloudy SCT070 BKN095 OVC120 73 72     95%   75 29.94        
Notice The following observation data may not be complete
Aug 13 23:35   10 Mostly Cloudy BKN120          %              
Aug 13 21:55 SE 3 10 Partly Cloudy SCT110 73 70     89%   75 29.94        
Aug 13 19:55 Calm 10 Clear CLR 73 72     94%   75 29.92        
Aug 13 18:55 SSW 10 10 Cloudy SCT015 OVC085 75 73     94%   77 29.94        
Aug 13 17:55 SSW 5 10 Light Rain SCT030 75 72     89%   77 29.93        
Aug 13 16:55 SSE 7 2.5 Rain BKN010 OVC014 73 72     94%   75 29.97        
Aug 13 13:55 SE 9 1.5 Thunderstorms and Light Rain BKN007 BKN015 OVC029 75 75     100%   77 29.97        
Aug 13 12:55 E 7 10 Cloudy OVC009 77 75     94%   79 30        
Aug 13 11:55 E 6 4 Heavy Rain BKN008 BKN014 BKN026 75 73     94%   77 30.02        
Aug 13 10:55 ESE 5 7 Light Rain SCT008 BKN026 BKN040 75 73     94%   77 30.03        
Aug 13 09:55 SSE 3 2 Heavy Rain SCT011 BKN024 OVC060 75 73     94%   77 30.05        
Aug 13 06:55 Calm 5 Fog/Mist BKN011 OVC040 73 73     100%   75 30.02        
Aug 13 06:35 Calm 5 Fog/Mist SCT014 BKN040 73 72     97%   75 30.02        
Aug 13 06:15 Calm 5 Light Drizzle CLR 73 72     97%   75 30.01        
Aug 13 05:55 E 3 5 Light Rain SCT031 SCT045 SCT060 73 72     97%   75 30.01        
Aug 13 02:35 ESE 3 10 Clear CLR 74 72     96%   75 30.02        
Aug 13 01:55 Calm 10 Clear CLR 74 72     94%   76 30.02        
Aug 13 01:35 Calm 10 Clear CLR 75 72     92%   76 30.03        
Aug 13 00:35 SSE 5 10 Clear CLR 75 73     93%   77 30.03        
Aug 13 00:15 SE 3 10 Partly Cloudy SCT032 76 73     93%   77 30.02        
Aug 12 23:35 SE 3 10 Clear CLR 76 73     92%   77 30.02        
Aug 12 23:15 SE 3 10 Clear CLR 76 73     91%   78 30.02        
Aug 12 22:55 ESE 5 10 Clear CLR 76 73     91%   78 30.01        
Aug 12 22:35 E 6 10 Clear CLR 75 73     94%   77 30.01        
Aug 12 22:15 ENE 5 10 Partly Cloudy SCT044 SCT060 75 73     94%   77 30.01        
Aug 12 21:55 E 3 10 Mostly Cloudy SCT044 BKN060 75 74     94%   77 30.01        
Aug 12 21:35 Calm 10 Mostly Cloudy BKN050 76 73     93%   77 30        
Aug 12 21:15 E 3 10 Partly Cloudy SCT050 SCT070 75 73     94%   76 29.99        
Aug 12 20:35 ENE 6 10 Thunderstorms BKN045 OVC060 75 73     94%   76 29.99   0    
Aug 12 19:15   10 Thunderstorms and Rain SCT026 SCT034 BKN045 77 72     83%   79 29.99        
Aug 12 18:35   10 Thunderstorms SCT035 SCT041 BKN047 82 74     78%   88 29.98        
Aug 12 18:15 Calm 10 Thunderstorms BKN035 BKN042 OVC070 82 74     78%   88 29.98        
Aug 12 14:55 S 8 10 Partly Cloudy SCT029 SCT040 SCT060 88 75     66%   98 29.99        
Aug 12 13:55 SE 10 10 Partly Cloudy SCT020 SCT025 SCT036 84 75     74%   92 30.02        
Aug 12 12:55 SSE 9 10 Mostly Cloudy SCT022 BKN028 BKN049 82 73     74%   88 30.04        
Aug 12 10:55 ESE 8 10 Cloudy SCT015 BKN033 OVC060 79 73     84%   82 30.07        
Aug 12 06:35 ESE 3 10 Cloudy OVC017 73 71     96%   74 30.02        
Notice The following observation data may not be complete
Aug 12 05:35   10 Partly Cloudy SCT060 SCT100          %              
Notice The following observation data may not be complete
Aug 12 05:15   10 Mostly Cloudy SCT060 BKN100          %              
Notice The following observation data may not be complete
Aug 12 04:35   7 Light Rain CLR          %         0    
Aug 12 03:35 S 3 10 Cloudy BKN027 BKN034 OVC075 72 71     96%   74 30.03   0    
Aug 12 02:55 ESE 5 4 Fog/Mist SCT025 BKN036 OVC050 72 71     95%   74 30.02   0    
Aug 12 02:35 ESE 5 5 Drizzle SCT027 BKN038 OVC120 72 71     95%   74 30.03        
Aug 12 01:55 SE 7 10 Cloudy BKN065 OVC070 75 69     82%   76 30.03        
Aug 12 01:35 SE 7 10 Mostly Cloudy BKN065 BKN080 75 69     81%   76 30.03        
Aug 12 01:15 SE 7 10 Partly Cloudy SCT050 75 68     78%   76 30.03        
Aug 12 00:35 E 3 10 Mostly Cloudy SCT065 SCT070 BKN085 74 68     83%   75 30.04        
May 15 00:35 N 11 10 Thunderstorms and Rain BKN036 BKN043 76 69     78%   77 29.94        
May 14 23:35 Calm 10 Partly Cloudy SCT055 78 69     73%   79 29.89        
May 14 18:55 SSE 10 10 Clear CLR 85 69     58%   89 29.83        
May 14 00:15 Calm 10 Partly Cloudy SCT070 72 67     85%   73 29.97        
May 13 21:55 SE 3 10 Clear CLR 77 67     73%   77 29.94        
May 13 18:15 SSE 8 10 Partly Cloudy SCT047 SCT060 SCT070 86 68     54%   90 29.91        
May 13 13:55 SSE 13 10 Partly Cloudy SCT040 SCT046 88 70     55%   93 29.98        
May 13 02:15 SSE 6 10 Clear CLR 72 66     82%   73 29.94        
May 12 17:55 SSE 17 10 Clear CLR 86 66     51%   88 29.89        
May 12 01:35 SE 3 10 Clear CLR 72 63     75%   72 29.88        
May 12 00:55 Calm 10 Clear CLR 72 64     75%   72 29.87        
May 11 21:15 S 6 10 Clear CLR 77 63     62%   78 29.81        
May 11 20:55 SSE 8 10 Clear CLR 78 63     60%   79 29.8        
May 11 16:55 S 13 10 Clear CLR 86 65     49%   87 29.81        
May 11 15:55 S 22 10 Clear and Windy CLR 86 63     46%   87 29.82        
Jun 12 07:55 SSE 5 10 Partly Cloudy SCT013 SCT090 77 72     83%   78 29.93        
Notice The following observation data may not be complete
Jun 12 07:15   10 Clear CLR          %              
Jun 11 22:15 SE 5 10 Clear CLR 76 65     67%   77 29.89        
Jun 11 21:15 SE 7 10 Clear CLR 80 63     58%   81 29.86        
Jun 11 16:55 SSE 15 10 Clear CLR 90 68     49%   93 29.87        
Jun 11 02:20 SE 6 10 Clear CLR 73 66     79%   74 29.87        
Jun 10 21:55 SSE 13 10 Clear CLR 80 66     62%   82 29.85        
Notice The following observation data may not be complete
Jun 10 04:15   10 Clear CLR          %              
Notice The following observation data may not be complete
Jun 09 22:15   10 Cloudy OVC037          %              
Jun 08 22:35 ESE 5 10 Clear CLR 71 62     73%   71 29.92        
Jun 08 22:15 ESE 5 10 Clear CLR 71 62     73%   71 29.91        
Jun 08 20:40 E 5 10 Clear CLR 75 62     63%   76 29.89        
Jun 08 10:55 SSE 8 10 Clear CLR 81 59     48%   81 30.03        
Notice The following observation data may not be complete
Jun 08 05:35   10 Clear CLR          %              
Jun 08 04:55 Calm 10 Clear CLR 61 59     93%     30        
Jun 06 12:55 N 15 10 Clear CLR 91 61     36%   91 29.91        
Notice The following observation data may not be complete
Jun 06 08:55   10 Clear CLR          %              
Jun 06 02:55 Calm 7 Clear   70 70     99%     29.86        
Notice The following observation data may not be complete
Jun 06 00:35   10 Clear CLR          %              
Notice The following observation data may not be complete
Jun 05 20:35   10 Clear CLR          %